Location: Unspecified
(0.0000°N, 0.0000°E)
Time: 23:35:01
(UTC+00:00)

STARLINK-33978 - Visible Passes

Search period start: 20 June 2025 00:00
Search period end: 30 June 2025 00:00
Orbit: 443 x 445 km, 43.0° (Epoch: 20 June)

Date Brightness Start Highest point End Pass type
(mag) Time Alt. Az. Time Alt. Az. Time Alt. Az.
21 Jun 3.7 19:20:49 10° SSW 19:23:31 40° S 19:23:31 40° S visible
22 Jun 3.9 18:40:43 10° SSW 18:43:54 31° SE 18:47:05 10° ENE visible
22 Jun 6.4 20:20:05 10° WNW 20:21:43 13° NW 20:21:43 13° NW visible
23 Jun 6.0 19:38:55 10° W 19:41:29 19° NW 19:44:03 10° N visible
24 Jun 5.4 18:58:06 10° WSW 19:01:10 27° NW 19:04:13 10° NNE visible
25 Jun 6.5 05:01:27 10° NNE 05:03:03 13° NE 05:04:38 10° ENE visible
27 Jun 3.1 05:16:51 10° NW 05:20:23 82° SW 05:23:55 10° SE visible
28 Jun 3.5 04:37:32 17° NNW 04:40:07 63° NE 04:43:37 10° SE visible
29 Jun 5.8 04:02:10 17° ESE 04:02:10 17° ESE 04:03:12 10° ESE visible
29 Jun 5.3 05:36:58 10° WSW 05:37:48 11° SW 05:38:38 10° SSW visible
